FW6949 Weather Reports


time (UTC)temp
F
wind
direction
speed
knots
gust
knots
rain 1hr
in
rain 24hr
in
rain mn
in
humidity
%
barometer
mb
20260509201953 83 118 0.0 0.0 0.00 1.53 1.53 70 4236.6
20260509201454 84 88 0.0 0.0 0.00 1.53 1.53 66 4236.3
20260509200951 86 117 1.7 1.7 0.00 1.53 1.53 64 4236.7
20260509200446 87 115 0.0 0.0 0.00 1.53 1.53 60 4236.7
20260509195943 87 113 0.0 0.9 0.00 1.53 1.53 57 4236.7
20260509195439 87 68 0.0 0.0 0.00 1.53 1.53 57 4236.8
20260509194938 87 78 0.0 0.0 0.00 1.53 1.53 56 4237.0
20260509194434 87 61 0.9 1.7 0.00 1.53 1.53 59 4236.6
20260509193931 88 78 0.9 0.9 0.00 1.53 1.53 54 4236.9
20260509193430 86 134 0.9 0.9 0.00 1.53 1.53 55 4237.0
20260509192927 85 106 0.0 0.0 0.00 1.53 1.53 61 4237.0
20260509192423 87 301 1.7 1.7 0.00 1.53 1.53 56 4237.2
20260509191918 87 134 0.0 0.0 0.00 1.53 1.53 58 4237.2
20260509191414 87 353 0.0 0.9 0.00 1.53 1.53 57 4237.5
20260509190910 86 171 0.0 0.0 0.00 1.53 1.53 60 4237.2
20260509190408 84 143 0.0 0.0 0.00 1.53 1.53 64 4237.4
20260509185905 82 99 0.9 0.9 0.00 1.53 1.53 70 4237.2
20260509185402 81 107 0.0 0.0 0.00 1.53 1.53 74 4237.4
20260509184859 81 100 0.0 0.0 0.00 1.53 1.53 72 4237.6
20260509184355 81 113 0.9 0.9 0.00 1.53 1.53 72 4237.4
20260509183853 81 64 0.9 1.7 0.00 1.53 1.53 73 4237.2
20260509183347 81 113 0.0 0.0 0.00 1.53 1.53 70 4237.6
20260509182843 85 107 0.9 1.7 0.00 1.53 1.53 67 4237.5
20260509182341 86 110 0.0 0.0 0.00 1.53 1.53 66 4237.6
20260509181838 86 71 0.9 0.9 0.00 1.53 1.53 61 4237.4
20260509181335 88 93 0.0 0.9 0.00 1.53 1.53 58 4237.5
20260509180833 88 116 0.0 0.9 0.00 1.53 1.53 55 4238.0
20260509180328 86 123 0.0 0.9 0.00 1.53 1.53 63 4237.9
20260509175826 86 137 0.0 0.0 0.00 1.53 1.53 64 4237.8
20260509175322 88 73 0.0 0.9 0.00 1.53 1.53 62 4237.8
20260509174818 88 187 2.6 2.6 0.00 1.53 1.53 63 4237.7
20260509174313 87 91 0.9 0.9 0.00 1.53 1.53 64 4237.9
20260509173810 84 74 1.7 1.7 0.00 1.53 1.53 67 4238.0
20260509173305 84 60 2.6 2.6 0.00 1.53 1.53 65 4238.1
20260509172801 85 33 2.6 2.6 0.00 1.53 1.53 67 4238.3
20260509172258 84 96 0.0 0.9 0.00 1.53 1.53 68 4238.0
20260509171754 83 142 0.9 0.9 0.00 1.53 1.53 73 4238.1
20260509171250 82 86 0.0 0.0 0.00 1.53 1.53 77 4238.0
20260509170747 81 91 0.9 0.9 0.00 1.53 1.53 73 4238.2
20260509170243 80 148 0.9 0.9 0.00 1.53 1.53 78 4238.1
20260509165742 78 133 0.0 0.9 0.00 1.53 1.53 83 4238.2
20260509165237 78 124 0.0 0.9 0.00 1.53 1.53 89 4238.2
20260509164733 77 80 0.9 0.9 0.00 1.53 1.53 89 4238.1
20260509164229 75 118 0.0 0.9 0.00 1.53 1.53 89 4238.2
20260509163727 76 158 0.0 0.0 0.00 1.53 1.53 89 4238.6
20260509163223 76 160 0.0 0.0 0.00 1.53 1.53 89 4238.1
20260509162720 76 132 0.0 0.0 0.00 1.53 1.53 89 4238.4
20260509162216 75 127 0.0 0.0 0.00 1.53 1.53 89 4238.2
20260509161711 75 116 0.9 0.9 0.00 1.53 1.53 89 4238.1
20260509161208 76 88 0.0 0.9 0.00 1.53 1.53 89 4238.2
20260509160703 75 54 0.0 0.9 0.00 1.53 1.53 89 4238.2
20260509160159 74 7 0.0 0.0 0.00 1.53 1.53 89 4238.2
20260509155655 76 87 0.9 0.9 0.00 1.53 1.53 89 4238.3
20260509155151 75 134 0.0 0.0 0.00 1.53 1.53 89 4238.3
20260509154647 75 121 0.0 0.0 0.00 1.53 1.53 89 4238.2
20260509154145 74 140 0.0 0.0 0.00 1.53 1.53 89 4237.9
20260509153641 74 160 0.0 0.0 0.00 1.53 1.53 89 4238.0
20260509153138 73 137 0.0 0.0 0.00 1.53 1.53 89 4238.0
20260509152634 73 129 0.0 0.0 0.00 1.53 1.53 89 4238.0
20260509152131 74 99 0.0 0.0 0.00 1.53 1.53 89 4238.1
20260509151628 74 113 0.0 0.0 0.00 1.53 1.53 89 4238.2
20260509151125 73 107 0.0 0.0 0.00 1.53 1.53 89 4237.7
20260509150623 73 121 0.0 0.0 0.00 1.53 1.53 89 4237.9
20260509150121 73 120 0.0 0.0 0.00 1.53 1.53 89 4237.8
20260509145617 73 126 0.0 0.0 0.00 1.53 1.53 89 4237.9
20260509145112 73 104 0.0 0.0 0.00 1.53 1.53 89 4238.2
20260509144609 73 169 0.0 0.0 0.00 1.53 1.53 89 4238.1
20260509144106 72 126 0.0 0.0 0.00 1.53 1.53 89 4238.1
20260509143603 72 112 0.0 0.0 0.00 1.53 1.53 89 4238.1
20260509143101 72 123 0.0 0.0 0.00 1.53 1.53 89 4237.8
20260509142556 72 148 0.0 0.0 0.00 1.53 1.53 89 4238.0
20260509142052 72 148 0.0 0.0 0.00 1.53 1.53 89 4238.2
20260509141549 72 157 0.0 0.0 0.00 1.53 1.53 89 4238.1
20260509141045 72 120 0.0 0.0 0.00 1.53 1.53 89 4238.1
20260509140542 72 134 0.0 0.0 0.00 1.53 1.53 89 4238.4
20260509140040 71 144 0.0 0.0 0.00 1.53 1.53 89 4238.5
20260509135537 71 139 0.0 0.0 0.00 1.53 1.53 89 4238.2
20260509135035 70 150 0.9 0.9 0.00 1.53 1.53 89 4238.4
20260509134532 70 186 0.0 0.0 0.00 1.53 1.53 89 4238.7
20260509134029 70 148 0.0 0.0 0.00 1.53 1.53 89 4238.8
20260509133526 70 135 0.0 0.0 0.00 1.53 1.53 89 4238.8
20260509133024 69 136 0.0 0.0 0.00 1.53 1.53 89 4238.8
20260509132522 69 136 0.0 0.0 0.00 1.53 1.53 89 4238.9
20260509132020 69 150 0.0 0.0 0.00 1.53 1.53 89 4238.8
20260509131515 69 145 0.0 0.0 0.00 1.53 1.53 89 4238.8
20260509131013 69 144 0.0 0.0 0.00 1.53 1.53 89 4239.1
20260509130508 69 152 0.0 0.0 0.00 1.53 1.53 89 4238.7
20260509130005 69 114 0.0 0.0 0.00 1.53 1.53 89 4238.6
20260509125501 69 121 0.0 0.0 0.00 1.53 1.53 89 4238.7
20260509124957 68 114 0.0 0.0 0.00 1.53 1.53 89 4238.6
20260509124454 68 132 0.0 0.0 0.00 1.53 1.53 89 4238.7
20260509123952 68 135 0.0 0.0 0.00 1.53 1.53 89 4238.6
20260509123449 68 131 0.0 0.0 0.00 1.53 1.53 89 4238.8
20260509122945 68 138 0.0 0.0 0.00 1.53 1.53 89 4238.7
20260509122442 68 138 0.0 0.0 0.00 1.53 1.53 89 4238.7
20260509121939 68 146 0.0 0.0 0.00 1.53 1.53 89 4238.5
20260509121436 68 121 0.0 0.0 0.00 1.53 1.53 89 4238.3
20260509120934 68 123 0.0 0.0 0.00 1.53 1.53 89 4238.1
20260509120432 68 99 0.0 0.0 0.00 1.53 1.53 89 4238.4
20260509115929 68 122 0.0 0.9 0.00 1.53 1.53 89 4238.2
20260509115426 68 117 0.0 0.0 0.00 1.53 1.53 89 4238.2
20260509114924 68 126 0.0 0.0 0.00 1.53 1.53 89 4238.3
20260509114422 68 109 0.0 0.0 0.00 1.53 1.53 89 4237.7
20260509113922 68 122 0.0 0.0 0.00 1.53 1.53 89 4237.6
20260509113418 68 104 0.0 0.0 0.00 1.53 1.53 89 4237.5
20260509112915 68 132 0.0 0.0 0.00 1.53 1.53 89 4237.3
20260509112412 68 133 0.0 0.0 0.00 1.53 1.53 89 4237.2
20260509111909 68 124 0.0 0.0 0.00 1.53 1.53 89 4237.0
20260509111406 68 129 0.0 0.0 0.00 1.53 1.53 89 4237.0
20260509110904 67 140 0.0 0.0 0.00 1.53 1.53 89 4236.8
20260509110359 67 131 0.0 0.0 0.00 1.53 1.53 89 4236.7
20260509105858 67 108 0.0 0.0 0.00 1.53 1.53 89 4236.5
20260509105356 67 112 0.0 0.0 0.00 1.53 1.53 89 4236.4
20260509104852 67 121 0.0 0.0 0.00 1.53 1.53 89 4236.6
20260509104348 67 120 0.0 0.0 0.00 1.53 1.53 89 4236.6
20260509103846 66 128 0.0 0.0 0.00 1.53 1.53 89 4236.6
20260509103344 66 120 0.0 0.0 0.00 1.53 1.53 89 4236.6
20260509102843 66 139 0.0 0.0 0.00 1.53 1.53 89 4236.7
20260509102339 66 131 0.0 0.0 0.00 1.53 1.53 89 4236.6
20260509101835 66 137 0.0 0.0 0.00 1.53 1.53 89 4236.8
20260509101331 66 137 0.0 0.0 0.00 1.53 1.53 89 4236.6
20260509100830 66 133 0.0 0.0 0.00 1.53 1.53 89 4236.9
20260509100326 66 144 0.0 0.0 0.00 1.53 1.53 89 4236.6
20260509095823 66 153 0.0 0.0 0.00 1.53 1.53 89 4237.0
20260509095320 65 169 0.0 0.0 0.00 1.53 1.53 89 4236.9
20260509094817 65 159 0.0 0.0 0.00 1.53 1.53 89 4237.1
20260509094314 65 160 0.0 0.0 0.00 1.53 1.53 89 4236.9
20260509093812 65 152 0.0 0.0 0.00 1.53 1.53 89 4237.0
20260509093309 65 152 0.0 0.0 0.00 1.53 1.53 89 4237.0
20260509092807 65 170 0.0 0.0 0.00 1.53 1.53 89 4236.9
20260509092306 65 149 0.0 0.0 0.00 1.53 1.53 89 4236.8
20260509091803 64 152 0.0 0.0 0.00 1.53 1.53 89 4237.1
20260509091259 64 152 0.0 0.0 0.00 1.53 1.53 89 4237.1
20260509090756 64 146 0.0 0.0 0.00 1.53 1.53 89 4236.8
20260509090253 64 140 0.0 0.0 0.00 1.53 1.53 89 4236.9
20260509085751 64 104 0.0 0.0 0.00 1.53 1.53 89 4237.0
20260509085248 64 152 0.0 0.0 0.00 1.53 1.53 89 4237.1
20260509084744 64 162 0.0 0.0 0.00 1.53 1.53 89 4237.2
20260509084241 64 164 0.0 0.0 0.00 1.53 1.53 89 4237.2
20260509083739 64 123 0.0 0.0 0.00 1.53 1.53 89 4237.4
20260509083236 64 131 0.0 0.0 0.00 1.53 1.53 89 4237.4
20260509082732 64 153 0.0 0.9 0.00 1.53 1.53 89 4237.9
20260509082229 64 133 0.0 0.0 0.00 1.53 1.53 89 4237.8
20260509081726 64 118 0.0 0.0 0.00 1.53 1.53 89 4237.7
20260509081224 64 118 0.0 0.0 0.00 1.53 1.53 89 4237.8
20260509080721 64 121 0.0 0.0 0.00 1.53 1.53 89 4237.6
20260509080219 63 122 0.0 0.0 0.00 1.53 1.53 89 4237.6
20260509075717 63 160 0.0 0.0 0.00 1.53 1.53 89 4237.5
20260509075214 63 150 0.0 0.0 0.00 1.53 1.53 89 4237.6
20260509074711 64 161 0.0 0.0 0.00 1.53 1.53 89 4237.8
20260509074209 64 193 0.0 0.0 0.00 1.53 1.53 89 4237.9
20260509073705 64 144 0.0 0.0 0.00 1.53 1.53 89 4237.7
20260509073201 63 104 0.9 0.9 0.00 1.53 1.53 89 4237.8
20260509072658 63 87 0.0 0.0 0.00 1.53 1.53 89 4238.0
20260509072155 63 164 0.0 0.0 0.00 1.53 1.53 89 4238.1
20260509071651 63 159 0.0 0.0 0.00 1.53 1.53 89 4238.0
20260509071148 63 150 0.0 0.0 0.00 1.53 1.53 89 4237.9
20260509070645 63 128 0.0 0.0 0.00 1.53 1.53 89 4237.8
20260509070141 63 150 0.0 0.0 0.00 1.53 1.53 89 4237.9
20260509065637 63 164 0.0 0.0 0.00 1.53 1.53 89 4238.4
20260509065134 63 115 0.0 0.0 0.00 1.53 1.53 89 4238.7
20260509064631 63 156 0.0 0.0 0.00 1.53 1.53 89 4238.8
20260509064129 63 117 0.0 0.0 0.00 1.53 1.53 89 4238.8
20260509063626 63 114 0.0 0.0 0.00 1.53 1.53 89 4238.8
20260509063122 63 145 0.0 0.0 0.00 1.53 1.53 89 4238.4
20260509062620 63 116 0.0 0.0 0.00 1.53 1.53 89 4238.6
20260509062116 63 71 1.7 1.7 0.00 1.53 1.53 89 4238.5
20260509061613 63 103 0.9 0.9 0.00 1.53 1.53 89 4238.1
20260509061111 63 48 0.9 0.9 0.00 1.53 1.53 89 4238.4
20260509060608 63 127 0.0 0.0 0.00 1.53 1.53 89 4238.4
20260509060104 63 119 0.0 0.0 0.00 1.53 1.53 89 4238.2
20260509055559 63 191 0.9 0.9 0.00 1.53 1.53 89 4238.1
20260509055055 62 184 0.9 0.9 0.00 1.53 1.53 89 4237.9
20260509054552 62 194 0.9 0.9 0.07 1.53 1.53 89 4237.9
20260509054050 62 185 0.9 1.7 0.12 1.53 1.53 89 4238.3
20260509053549 62 187 0.0 0.0 0.59 1.52 1.52 89 4238.2
20260509053045 62 152 2.6 2.6 1.70 1.51 1.51 89 4238.3
20260509052543 62 190 0.9 1.7 3.24 1.42 1.42 89 4238.9
20260509052041 62 168 3.5 6.1 4.30 1.23 1.23 89 4239.7
20260509051538 63 179 2.6 2.6 4.32 0.90 0.90 87 4239.8
20260509051035 67 303 4.3 7.0 3.12 0.52 0.52 88 4240.7
20260509050532 70 173 1.7 2.6 0.66 0.11 0.11 87 4240.5
20260509050028 71 294 1.7 1.7 0.00 0.00 0.00 82 4239.5
20260509045526 72 223 1.7 1.7 0.00 0.00 0.00 80 4239.1
20260509045023 72 196 0.9 0.9 0.00 0.00 0.00 79 4238.7
20260509044521 71 220 0.9 0.9 0.00 0.00 0.00 77 4239.2
20260509044018 71 57 0.9 1.7 0.00 0.00 0.00 76 4239.4
20260509043514 71 77 0.9 0.9 0.00 0.00 0.00 78 4239.3
20260509043010 71 89 1.7 1.7 0.00 0.00 0.00 78 4239.0
20260509042506 71 124 0.0 0.0 0.00 0.00 0.00 78 4238.6
20260509042002 71 124 0.0 0.0 0.00 0.00 0.00 78 4238.5
20260509041459 71 147 0.0 0.0 0.00 0.00 0.00 78 4238.4
20260509040957 71 131 0.0 0.0 0.00 0.00 0.00 78 4238.2
20260509040455 71 117 0.0 0.0 0.00 0.00 0.00 78 4238.4
20260509035951 71 103 0.0 0.0 0.00 0.00 0.00 78 4238.2
20260509035448 71 100 0.0 0.0 0.00 0.00 0.00 77 4238.4
20260509034945 70 119 0.0 0.0 0.00 0.00 0.00 78 4238.2
20260509034443 70 117 0.0 0.0 0.00 0.00 0.00 77 4238.1
20260509033940 70 105 0.0 0.0 0.00 0.00 0.00 78 4238.0
20260509033437 70 106 0.0 0.0 0.00 0.00 0.00 78 4237.9
20260509032933 70 114 0.0 0.0 0.00 0.00 0.00 78 4237.8
20260509032431 70 96 0.0 0.0 0.00 0.00 0.00 77 4237.7
20260509031928 71 115 0.0 0.0 0.00 0.00 0.00 76 4237.6
20260509031426 71 137 0.0 0.0 0.00 0.00 0.00 76 4237.7
20260509030923 71 136 0.0 0.0 0.00 0.00 0.00 76 4237.3
20260509030421 71 141 0.0 0.0 0.00 0.00 0.00 76 4237.3
20260509025918 71 146 0.0 0.0 0.00 0.00 0.00 76 4237.5
20260509025413 70 150 0.0 0.0 0.00 0.00 0.00 76 4237.7
20260509024908 70 137 0.0 0.0 0.00 0.00 0.00 76 4237.4
20260509024405 70 122 0.0 0.0 0.00 0.00 0.00 76 4237.5
20260509023902 70 117 0.0 0.0 0.00 0.00 0.00 76 4237.4
20260509023359 70 114 0.0 0.0 0.00 0.00 0.00 76 4237.3
20260509022855 70 112 0.0 0.0 0.00 0.00 0.00 76 4237.0
20260509022353 70 123 0.0 0.0 0.00 0.00 0.00 76 4237.2
20260509021850 70 134 0.0 0.0 0.00 0.00 0.00 75 4237.0
20260509021347 70 141 0.0 0.0 0.00 0.00 0.00 75 4237.1
20260509020845 70 130 0.0 0.0 0.00 0.00 0.00 76 4237.0
20260509020343 70 119 0.0 0.0 0.00 0.00 0.00 76 4236.9
20260509015839 70 116 0.0 0.0 0.00 0.00 0.00 76 4237.1
20260509015338 70 111 0.0 0.0 0.00 0.00 0.00 76 4236.8
20260509014834 70 140 0.0 0.0 0.00 0.00 0.00 75 4236.6
20260509014331 70 162 0.0 0.0 0.00 0.00 0.00 75 4236.5
20260509013828 70 154 0.0 0.0 0.00 0.00 0.00 75 4236.5
20260509013324 70 124 0.0 0.0 0.00 0.00 0.00 74 4236.8
20260509012820 71 110 0.0 0.0 0.00 0.00 0.00 73 4236.6
20260509012317 71 101 0.0 0.0 0.00 0.00 0.00 73 4236.6
20260509011815 71 135 0.0 0.0 0.00 0.00 0.00 72 4236.6
20260509011312 72 156 0.0 0.9 0.00 0.00 0.00 72 4236.3
20260509010809 72 165 0.9 0.9 0.00 0.00 0.00 70 4236.3
20260509010306 73 115 0.0 0.0 0.00 0.00 0.00 69 4236.3
20260509005804 73 121 0.0 0.0 0.00 0.00 0.00 69 4236.3
20260509005305 73 117 0.0 0.0 0.00 0.00 0.00 68 4236.3
20260509004801 74 110 0.0 0.0 0.00 0.00 0.00 67 4236.1
20260509004258 74 128 0.0 0.0 0.00 0.00 0.00 67 4236.0
20260509003756 75 144 0.0 0.0 0.00 0.00 0.00 65 4236.2
20260509003254 75 137 0.0 0.0 0.00 0.00 0.00 64 4236.2
20260509002751 75 137 0.0 0.0 0.00 0.00 0.00 63 4236.3
20260509002248 75 138 0.0 0.0 0.00 0.00 0.00 62 4236.3
20260509001746 76 146 0.0 0.0 0.00 0.00 0.00 62 4236.3
20260509001241 76 146 0.0 0.0 0.00 0.00 0.00 62 4236.2
20260509000739 76 127 0.0 0.0 0.00 0.00 0.00 62 4236.4
20260509000236 77 102 0.0 0.9 0.00 0.00 0.00 61 4236.7
20260508235733 77 134 0.0 0.0 0.00 0.00 0.00 59 4236.6
20260508235230 77 136 0.0 0.0 0.00 0.00 0.00 59 4236.6
20260508234728 77 149 0.0 0.0 0.00 0.00 0.00 58 4236.6
20260508234224 77 132 0.0 0.0 0.00 0.00 0.00 59 4236.6
20260508233723 78 105 0.0 0.0 0.00 0.00 0.00 57 4236.8
20260508233221 78 168 0.0 0.9 0.00 0.00 0.00 55 4236.6
20260508232718 78 154 0.0 0.9 0.00 0.00 0.00 56 4236.4
20260508232214 78 101 0.0 0.9 0.00 0.00 0.00 58 4236.4
20260508231712 78 288 2.6 2.6 0.00 0.00 0.00 55 4235.7
20260508231209 78 126 2.6 4.3 0.00 0.00 0.00 54 4235.3
20260508230706 77 173 0.9 0.9 0.00 0.00 0.00 56 4235.4
20260508230202 76 228 0.9 0.9 0.00 0.00 0.00 59 4235.0
20260508225700 75 197 3.5 4.3 0.00 0.00 0.00 61 4235.1
20260508225156 75 67 2.6 4.3 0.00 0.00 0.00 58 4233.8
20260508224654 75 176 2.6 2.6 0.00 0.00 0.00 60 4235.3
20260508224151 75 156 1.7 1.7 0.00 0.00 0.00 59 4237.0
20260508223649 76 86 1.7 1.7 0.00 0.00 0.00 60 4237.1
20260508223146 77 166 0.9 0.9 0.00 0.00 0.00 55 4236.9
20260508222643 77 148 0.0 0.0 0.00 0.00 0.00 55 4237.1
20260508222140 77 144 0.0 0.0 0.00 0.00 0.00 55 4237.0
20260508221636 78 111 0.0 0.0 0.00 0.00 0.00 53 4237.2
20260508221132 78 148 0.9 0.9 0.00 0.00 0.00 52 4237.5
20260508220629 78 164 0.9 0.9 0.00 0.00 0.00 52 4237.8
20260508220125 78 134 0.0 0.9 0.00 0.00 0.00 53 4237.5
20260508215622 79 140 0.0 0.0 0.00 0.00 0.00 50 4237.5
20260508215119 80 145 0.0 0.9 0.00 0.00 0.00 48 4237.3
20260508214616 80 138 0.0 0.0 0.00 0.00 0.00 49 4237.2
20260508214113 80 146 0.0 0.9 0.00 0.00 0.00 44 4237.1
20260508213610 81 146 0.0 0.0 0.00 0.00 0.00 44 4237.2
20260508213106 81 164 0.9 0.9 0.00 0.00 0.00 43 4236.8
20260508212602 82 161 0.0 0.9 0.00 0.00 0.00 41 4237.2
20260508212059 82 161 0.0 0.0 0.00 0.00 0.00 44 4237.2
20260508211554 83 155 0.0 0.0 0.00 0.00 0.00 44 4237.2
20260508211051 83 137 0.0 0.9 0.00 0.00 0.00 44 4237.1
20260508210547 83 176 0.9 1.7 0.00 0.00 0.00 45 4237.3
20260508210045 85 209 2.6 2.6 0.00 0.00 0.00 40 4237.1
20260508205542 86 138 0.9 1.7 0.00 0.00 0.00 40 4237.1
20260508205038 86 292 1.7 2.6 0.00 0.00 0.00 41 4237.3
20260508204535 86 114 0.0 0.9 0.00 0.00 0.00 41 4237.3
20260508204031 86 114 0.0 0.9 0.00 0.00 0.00 41 4237.3
20260508203527 85 116 0.0 0.0 0.00 0.00 0.00 41 4237.5
20260508203023 85 132 0.9 1.7 0.00 0.00 0.00 40 4237.4
20260508202520 84 98 0.9 0.9 0.00 0.00 0.00 44 4237.7
20260508202017 84 108 0.9 0.9 0.00 0.00 0.00 44 4237.3